User: anonymous   Login
Location: Bühlhof
(48.7849°N, 8.6361°E)
Time: 22:26:52
(UTC+00:00)
Language:

Resurs 01 Rocket - Orbit

View from above orbital plane
View from above orbital plane
View from above satellite
View from above satellite

Ground track
Ground track

The orbit is defined by the following mean orbital elements,

1 23343U          26069.54841931 +.00000000 +00000-0 +84850-4 0 00005
2 23343  97.7109 100.3313 0005866 207.1181 272.6344 14.79409106    05
Epoch (UTC): 10 March 2026 13:09:43
Eccentricity: 0.0005866
inclination: 97.7109°
perigee height: 627 km
apogee height: 635 km
right ascension of ascending node: 100.3313°
argument of perigee: 207.1181°
revolutions per day: 14.79409106
mean anomaly at epoch: 272.6344°

The dashed part of the orbit path shows where the satellite is in the earth's shadow,  

DLR